#timestamp,LO_Frequency,Hit,StdDev 
1512104415.8,286047008.8,N
1512104435.6,286047009.0,N
1512104455.5,286047009.2,N
1512104475.3,286047010.3,N
1512104495.1,286047009.0,N
1512104515.9,286047008.8,N
1512104535.7,286047010.7,N
1512104555.6,286047007.5,N
1512104575.4,286047005.1,N
1512104595.2,286047003.3,N
1512104615.1,286047004.6,N
1512104616.0,286047004.6,N
1512104635.8,286047005.0,N
1512104655.6,286047005.3,N
1512104675.5,286047005.8,N
1512104695.3,286047002.9,N
1512104715.2,286047005.7,N
1512104735.9,286047005.5,N
1512104755.7,286047004.2,N
1512104775.6,286047003.9,N
1512104795.4,286047005.1,N
1512104815.2,286047006.4,N
1512104835.1,286047007.1,Y
1512104836.0,286047007.1,P
1512104855.8,286047000.6,N
1512104875.7,286046998.2,N
1512104895.5,286046999.6,N
1512104915.3,286046998.9,N
1512104935.2,286047002.4,N
1512104955.0,286047003.2,N
1512104955.9,286047003.2,N
1512104975.7,286047003.1,N
1512104995.6,286047003.4,N
1512105015.4,286047003.8,N
1512105035.3,286047003.4,N
1512105055.1,286047003.1,N
1512105056.0,286047003.1,N
1512105075.8,286047003.7,N
1512105095.7,286047002.2,N
1512105115.5,286047004.0,N
1512105135.3,286047003.0,N
1512105155.2,286047004.9,N
1512105175.0,286047006.8,Y
1512105175.9,286047006.8,P
1512105195.8,286047003.7,N
1512105215.6,286047001.9,N
1512105235.4,286047001.6,N
1512105255.3,286047001.9,N
1512105275.1,286047003.9,N
1512105295.9,286047003.3,N
1512105315.7,286047005.7,Y
1512105335.5,286047001.9,P
1512105355.4,286047003.4,P
1512105375.2,286047005.7,P
1512105395.0,286047003.3,N
1512105395.9,286047003.3,N
1512105415.8,286047001.7,N
1512105435.6,286046999.8,N
1512105455.5,286047000.5,N
1512105475.3,286047002.5,N
1512105495.1,286047002.3,N
1512105515.9,286047002.1,N
1512105535.7,286047002.6,N
1512105555.5,286047003.3,N
1512105575.4,286047003.4,N
1512105595.2,286047002.9,N
1512105615.1,286047006.0,Y
1512105616.0,286047006.0,P
1512105635.8,286047000.7,N
1512105655.6,286047002.8,N
1512105675.5,286046999.8,N
1512105695.3,286047002.5,N
1512105715.1,286047001.7,N
1512105735.9,286047003.2,N
1512105755.7,286047001.7,N
1512105775.6,286046999.8,N
1512105795.4,286047001.8,N
1512105815.2,286047000.9,N
1512105835.1,286047000.7,N
1512105836.0,286047000.7,N
1512105855.8,286047000.9,N
1512105875.6,286046998.7,N
1512105895.5,286046998.2,N
1512105915.3,286047001.2,N
1512105935.2,286046998.3,N
1512105955.9,286047001.1,N
1512105975.7,286046998.9,N
1512105995.6,286046998.7,N
1512106015.4,286046998.2,N
1512106035.2,286046998.8,N
1512106055.1,286046999.3,N
1512106056.0,286046999.3,N
1512106075.8,286046998.3,N
1512106095.7,286047000.4,N
1512106115.5,286047000.4,N
1512106135.3,286047002.4,N
1512106155.2,286047002.5,N
1512106175.0,286047002.5,N
1512106175.9,286047002.5,N
1512106195.7,286047001.2,N
1512106215.6,286047002.7,N
1512106235.4,286046999.9,N
1512106255.3,286047002.1,N
1512106275.1,286047001.7,N
1512106276.0,286047001.7,N
1512106295.8,286047004.3,N
1512106315.7,286047003.8,N
1512106335.5,286047005.6,Y
1512106355.4,286047001.4,P
1512106375.2,286047001.4,P
1512106395.0,286047001.8,P
1512106395.9,286047001.8,Y
1512106415.8,286046999.8,P
1512106435.6,286047003.7,P
1512106455.4,286047006.0,P
1512106475.3,286047004.5,N
1512106495.1,286047005.3,N
1512106515.9,286047007.3,Y
1512106535.7,286047005.7,P
1512106555.5,286047003.2,N
1512106575.4,286047003.1,N
1512106595.2,286047003.3,Y
1512106615.1,286047001.0,P
1512106616.0,286047001.0,N
1512106635.8,286047002.8,N
1512106655.6,286047002.3,N
1512106675.5,286047002.4,N
1512106695.3,286046999.9,N
1512106715.1,286047001.1,N
1512106735.9,286046998.5,N
1512106755.7,286046998.7,N
1512106775.6,286046998.9,N
1512106795.4,286046998.6,N
1512106815.2,286046998.8,N
1512106835.1,286047000.5,N
1512106836.0,286047000.5,N
1512106855.8,286047000.1,N
1512106875.6,286047000.7,N
1512106895.5,286047000.8,N
1512106915.3,286046996.8,N
1512106935.2,286047000.8,N
1512106955.9,286046999.1,N
1512106975.7,286046998.1,N
1512106995.6,286046998.4,N
1512107015.4,286046998.3,N
1512107035.2,286046997.0,N
1512107055.1,286046997.3,N
1512107056.0,286046997.3,N
1512107075.8,286046999.0,N
1512107095.7,286046999.2,N
1512107115.5,286046999.1,N
1512107135.3,286046999.2,N
1512107155.2,286046997.8,N
1512107175.0,286046997.6,N
1512107175.9,286046997.6,N
1512107195.8,286046997.7,N
1512107215.6,286046995.1,Y
1512107235.4,286046995.3,P
1512107255.3,286046995.4,N
1512107275.1,286046997.3,N
1512107295.8,286046993.4,Y
1512107315.7,286046996.7,P
1512107335.5,286046995.2,P
1512107355.4,286046993.3,P
1512107375.2,286046993.3,Y
1512107395.0,286046998.1,P
1512107395.9,286046998.1,N
1512107415.8,286047000.6,N
1512107435.6,286047000.5,N
1512107455.5,286047002.7,N
1512107475.3,286047001.6,N
1512107495.1,286046999.7,N
1512107515.9,286047002.8,N
1512107535.7,286047002.2,N
1512107555.5,286047004.4,N
1512107575.4,286047003.9,N
1512107595.2,286047004.0,N
1512107615.1,286047004.2,N
1512107616.0,286047004.2,N
1512107635.8,286047001.6,N
1512107655.6,286047002.5,N
1512107675.5,286047000.9,N
1512107695.3,286047000.4,N
1512107715.1,286046999.2,N
1512107735.9,286046996.7,N
1512107755.7,286046996.6,N
1512107775.6,286046994.9,N
1512107795.4,286046996.2,N
1512107815.2,286046993.4,N
1512107835.1,286046996.1,N
1512107836.0,286046996.1,N
1512107855.8,286046996.2,N
1512107875.6,286046995.1,N
1512107895.5,286046993.3,N
1512107915.3,286046994.9,N
1512107935.2,286046995.2,N
1512107955.9,286046995.4,N
1512107975.7,286046995.6,N
1512107995.6,286046994.9,N
